Location: Camaret
(48.2753°N, 4.5961°W)
Time: 04:35:57
(UTC+00:00)

FALCON 9 DEB - Pass Details

Date: 29 October 2020
Orbit: 378 x 394 km, 53.0° (Epoch: 01 December)

Event Time Altitude Azimuth Distance (km) Brightness Sun altitude
Rises 17:57:53 0° 247° (WSW) 2,299 8.7 -9.6°
Reaches altitude 10° 17:59:57 10° 249° (WSW) 1,441 7.3 -9.9°
Maximum altitude 18:03:10 76° 335° (NNW) 412 3.0 -10.4°
Enters shadow 18:05:38 16° 61° (ENE) 1,133 4.6 -10.8°
